www.pogodaiklimat.ru

Погода и климат >> Архив погоды >> Россия >> Башкирия >> Зилаир


ПОГОДА в Зилаире

  • Прогноз погоды в Зилаире
  • Монитор погоды в Зилаире
  • Климат города

АРХИВ ПОГОДЫ в Зилаире

Время (UTC), дата Ветер
(напр.,м/с)
 
Видим.   Явления Облачность Т
(С)
Тd
(С)
f
(%)
Тe
(С)
Тes
(С)
Комфортность P
(гПа)
Po
(гПа)
Тmin
(С)
Tmax
(С)
R
(мм)
R24
(мм)
S
(см)
21 12.09 З 2 10 км в посл. час ливневой дождь 10/10 600 м
[Cb calv]
+12.8 +10.8 88 +12 +12 1018.1 957.3
00 13.09 ЮЗ 1 4000 м дымка {ливн. осадки} 10/10 600 м
[Cb calv]
+12.4 +11.5 94 +12 +12 1018.6 957.7
03 13.09 З 1 4000 м дымка 10/10 600 м
[Sc]
+13.1 +12.3 95 +13 +13 1019.9 959.1 +12.3 4
06 13.09 СЗ 2 20 км 8/8 600 м
[Cu Sc]
+17.3 +13.3 77 +18 +19 1019.2 959.3
09 13.09 З 1 20 км 10/10 600 м
[Sc]
+17.6 +12.3 71 +19 +19 1020.0 960.1
12 13.09 СЗ 2 20 км 5/5 600 м
[Sc]
+20.7 +12.1 58 +24 +25 комфорт 1019.0 959.7
15 13.09 ЮВ 1 10 км ясно +16.0 +13.3 84 +17 +17 1019.9 959.7 +20.9
18 13.09 штиль 0 4000 м дымка ясно +11.9 +11.2 95 +11 +11 1021.4 960.2
21 13.09 Ю 1 4000 м дымка ясно +9.4 +8.8 96 +9 +9 1021.8 960.0
00 14.09 штиль 0 4000 м дымка ясно +7.1 +6.5 96 +6 +6 1022.4 960.1
03 14.09 штиль 0 20 км дымка ясно +6.4 +5.8 96 +5 +6 1023.0 960.5 +5.8
06 14.09 Ю 2 20 км ясно +18.6 +8.2 51 +20 +26 1020.0 960.2
09 14.09 З 4 20 км ясно +23.2 +0.3 22 +22 +28 комфорт 1018.2 959.3
12 14.09 ЮЗ 4
{10}
20 км 3/0
[Ci fib]
+24.0 -0.4 20 +23 +24 комфорт 1016.1 958.1
15 14.09 ЮВ 1 10 км 4/0
[Cs]
+17.3 +2.8 38 +18 +18 1016.6 956.7 +24.3
18 14.09 Ю 1 10 км ясно +12.6 +3.7 55 +13 +13 1017.5 956.6
21 14.09 СВ 1 10 км ясно +7.6 +4.8 82 +7 +7 1018.5 956.5
00 15.09 штиль 0 10 км ясно +5.9 +3.9 87 +5 +5 1017.9 955.5
03 15.09 Ю 1 10 км ясно +6.2 +4.0 86 +5 +6 1018.1 955.8 +4.6
06 15.09 СЗ 1 20 км 4/0
[Ci fib]
+18.9 +2.7 34 +20 +27 1016.3 956.7
09 15.09 З 2 20 км 4/0
[Ci fib]
+24.8 -4.6 14 +23 +30 комфорт 1014.7 956.3
12 15.09 СЗ 2 20 км ясно +24.8 -3.6 15 +23 +25 комфорт 1014.6 956.2
15 15.09 ЮВ 1 10 км ясно +17.2 +5.2 45 +18 +18 1016.5 956.6 +25.5
18 15.09 С 1 10 км ясно +10.9 +7.4 79 +11 +11 1018.0 956.7
21 15.09 С 1 10 км ясно +8.5 +6.5 87 +8 +8 1018.7 956.9
00 16.09 С 1 10 км ясно +7.0 +5.8 92 +6 +6 1019.3 957.1
03 16.09 СВ 1 10 км ясно +6.9 +5.5 91 +6 +6 1020.2 957.9 +6.2
06 16.09 Ю 2 20 км ясно +20.0 +10.7 55 +22 +28 комфорт 1017.4 958.1
09 16.09 ЮЗ 3 20 км 4/3 600 м
[Cu med, cong Ci fib]
+24.6 +10.8 42 +26 +31 жарко 1016.1 957.7
12 16.09 З 2 20 км 3/3 600 м
[Cu med, cong]
+25.1 +8.1 34 +25 +27 комфорт 1015.5 957.2
15 16.09 Ю 1 10 км 3/0
[Cs]
+18.5 +9.3 55 +20 +20 1017.1 957.5 +25.5
18 16.09 С 1 10 км ясно +12.2 +9.8 85 +12 +12 1018.7 957.7
21 16.09 штиль 0 4000 м дымка ясно +9.1 +8.0 93 +8 +8 1019.6 957.9
00 17.09 СВ 1 4000 м дымка ясно +7.3 +6.5 95 +6 +6 1020.3 958.1
03 17.09 штиль 0 4000 м дымка 5/0
[Ac lent Ci fib]
+7.1 +6.1 93 +6 +6 1021.3 959.0 +6.6
06 17.09 С 1 20 км 6/0
[Cc]
+17.3 +9.9 62 +18 +25 1019.5 959.5
09 17.09 СЗ 4 20 км 5/0
[Ci fib]
+20.9 +0.7 26 +21 +26 комфорт 1018.6 959.2
12 17.09 СЗ 3 20 км 8/0
[Cs]
+19.1 +2.9 34 +20 +21 1018.8 959.1
15 17.09 СЗ 2 10 км 3/0
[Ci fib]
+13.7 +4.3 53 +13 +13 1020.3 959.4 +21.2
18 17.09 штиль 0 10 км ясно +7.3 +5.3 87 +6 +6 1022.1 959.8
21 17.09 штиль 0 4000 м дымка ясно +4.7 +3.8 94 +4 +4 1022.7 959.8
00 18.09 штиль 0 4000 м дымка ясно +2.4 +1.7 95 +1 +1 1023.9 960.4
03 18.09 С 1 4000 м дымка 8/0
[Cs]
+1.5 +0.7 94 -0 0 1024.4 960.6 +1.3
06 18.09 СЗ 1 20 км 6/0
[Cs]
+14.5 +6.6 59 +15 +21 1022.3 961.5
09 18.09 СЗ 3 20 км 6/3 600 м
[Sc Ci fib]
+17.7 +3.2 38 +18 +22 1021.1 961.0
12 18.09 СЗ 3 20 км 3/0
[Ci fib]
+17.9 +3.0 37 +18 +20 1020.8 960.7
15 18.09 штиль 0 10 км 6/0
[Cs]
+12.9 +5.5 61 +13 +13 1022.3 961.2 +18.5
18 18.09 штиль 0 10 км ясно +8.0 +6.1 88 +7 +7 1024.4 962.1
21 18.09 СВ 1 4000 м дымка ясно +6.0 +5.1 94 +5 +5 1025.0 962.2
00 19.09 штиль 0 4000 м дымка ясно +4.6 +3.7 94 +3 +3 1026.2 963.0
03 19.09 штиль 0 4000 м дымка 8/0
[Cs]
+4.2 +3.2 93 +3 +3 1026.6 963.3 +3.7
06 19.09 ЮЗ 2 20 км 8/0
[Cs]
+17.3 +6.5 49 +18 +23 1024.4 964.1
09 19.09 ЮЗ 2 20 км 9/0
[Cs]
+22.0 +5.0 33 +22 +29 комфорт 1023.0 963.6
12 19.09 ЮЗ 3 20 км 9/0
[Cs]
+23.4 +5.3 31 +24 +25 комфорт 1021.7 962.7
15 19.09 ЮВ 1 10 км 6/0
[Cs]
+17.1 +7.7 54 +18 +18 1022.8 962.5 +23.9
18 19.09 штиль 0 10 км ясно +12.3 +7.6 73 +12 +12 1023.9 962.6

 

Местоположение метеостанции Зилаир (Башкирия, Россия): широта 52.22 долгота 57.40 высота над уровнем моря 521 м.

В архиве по умолчанию представлена погода в Зилаире за последнюю неделю. Архивные данные за месяц целиком и за предыдущие месяцы, начиная с января 2011 года, Вы можете получить, выбрав интересующий диапазон дат из раскрывающегося списка и нажав кнопку "Ввод!".

Внимание! Время в таблицах - всемирное. Для получения местного времени необходимо прибавить поправку, которая в Зилаире равна 5 ч.

Смотрите также архив погоды в соседних городах и на ближайших метеорологических станциях:

Погода в Акъяре (Башкирия, Россия) (66 км)
Погода в Троицком Т (Оренбургская область, Россия) (71 км)
Погода в Кувандыке (Оренбургская область, Россия) (83 км)
Погода в Энергетике (Оренбургская область, Россия) (110 км)
Погода в Беляевке (Оренбургская область, Россия) (112 км)
Погода в Кизильском (Челябинская область, Россия) (115 км)
Погода в Кумертау (Башкирия, Россия) (125 км)
Погода в Орске (Оренбургская область, Россия) (152 км)
Погода в Оренбурге (Оренбургская область, Россия) (169 км)
Погода в Магнитогорске (Челябинская область, Россия) (169 км)

Пояснения к столбцам:

Ветер - указаны скорость ветра в м/с - средняя за 10 мин, порывы в срок и между сроками (в фигурных скобках) и направление, откуда дует ветер: С - северный, СВ - северо-восточный, В - восточный, ЮВ - юго-восточный, Ю - южный, ЮЗ - юго-западный, З - западный, СЗ - северо-западный.
Видимость - горизонтальная дальность видимости в метрах или километрах. При видимости от 1 до 10 км при отсутствии осадков обычно наблюдается дымка, при ухудшении видимости до 1 км и менее - туман. В сухую погоду видимость может ухудшаться дымом, пылью или мглою.
Явления - указаны атмосферные явления, наблюдавшиеся в срок или в последний час перед сроком; фигурными скобками обозначены явления, наблюдавшиеся между сроками (за 1-3 часа до срока); квадратными скобками обозначены град или гололедные отложения с указанием их диаметра в мм.
Облачность - указаны через наклонную черту общая и нижняя облачность в баллах и высота нижней границы облаков в метрах; квадратными скобками обозначены формы облаков: Ci - перистые, Cs - перисто-слоистые, Cc - перисто-кучевые, Ac - высококучевые, As - высокослоистые, Sc - слоисто-кучевые, Ns - слоисто-дождевые, Cu - кучевые, Cb - кучево-дождевые. Подробнее классификацию облаков см. в Атласе облаков (PDF).
T - Температура воздуха - температура, измеренная на высоте 2 м над землей.
Td - Температура точки росы - температура, при понижении до которой содержащийся в воздухе водяной пар достигнет насыщения.
f - Относительная влажность воздуха - влажноcть воздуха, измеренная на высоте 2 м над землей.
Te - Эффективная температура - температура, которую ощущает одетый по сезону человек в тени. Характеристика душности погоды. При расчете учитывается влияние влажности воздуха и скорости ветра на теплоощущения человека.
Tes - Эффективная температура на солнце - температура, которую ощущает человек, с поправкой на солнечный нагрев. Характеристика знойности погоды. Зависит от высоты солнца над горизонтом, облачности и скорости ветра. Ночью, в пасмурную погоду, а также при ветре 12 м/с и более поправка равна нулю.
P - Атмосферное давление - приведенное к уровню моря атмосферное давление.
Po - Атмосферное давление - измеренное на уровне метеостанции атмосферное давление.
Tmin - Минимальная температура - минимум температуры воздуха на высоте 2 м над землей.
Tmax - Максимальная температура - максимум температуры воздуха на высоте 2 м над землей.
R - Количество осадков - Количество выпавших осадков за период времени, мм. При наведении курсора мыши на число - период времени, за который выпало указанное количество осадков.
R24 - Количество осадков - Количество выпавших осадков за 24 часа, мм.
S - Снежный покров - Высота снежного покрова, см. При наведении курсора мыши на число - состояние снежного покрова и степень покрытия местности в баллах.